Location: Bron Breck
(40.6655°N, 111.8083°W)
Time: 06:27:23
(UTC+00:00)

ISS - Pass Details

Date: 09 March 2021
Orbit: 418 x 422 km, 51.6° (Epoch: 16 April)

Event Time Altitude Azimuth Distance (km) Brightness Sun altitude
Exits shadow 13:15:36 - 304° (NW) 1,879 -1.0 -7.0°
Reaches altitude 10° 13:16:31 10° 303° (WNW) 1,498 -1.5 -6.8°
Maximum altitude 13:19:52 72° 219° (SW) 442 -3.8 -6.2°
Drops below altitude 10° 13:23:12 10° 135° (SE) 1,490 -0.2 -5.5°
Sets 13:25:18 0° 133° (SE) 2,351 0.9 -5.1°
